Regional Weather Roundup
Issued by NWS

Home | Current Version | Previous Version | Graphics & Text | Print | Product List | Glossary On
Versions: 1 2 3 4 5 6 7 8 9 10 11 12 13 14 15 16 17 18 19 20 21 22 23 24 25 26 27 28 29 30 31 32 33 34 35 36 37 38 39 40 41 42 43 44 45 46 47 48 49 50
000
ASUS43 KBIS 270102
RWRND

NORTH DAKOTA REGIONAL WEATHER ROUNDUP
NATIONAL WEATHER SERVICE BISMARCK ND
800 PM CDT WED APR 26 2017

NOTE: "FAIR" INDICATES FEW OR NO CLOUDS BELOW 12,000 FEET WITH NO
SIGNIFICANT WEATHER AND/OR OBSTRUCTIONS TO VISIBILITY.


NDZ001>003-009>011-017-270200-
NORTHWEST NORTH DAKOTA

CITY           SKY/WX    TMP DP  RH WIND       PRES   REMARKS
WILLISTON      FAIR      49  19  30 E12       29.76F
MINOT          FAIR      46  25  43 NE12      29.77S
MINOT AFB      CLEAR     46  25  43 E13       29.76F
$$

NDZ018>021-031>035-040>046-270200-
SOUTHWEST NORTH DAKOTA

CITY           SKY/WX    TMP DP  RH WIND       PRES   REMARKS
BISMARCK       MOCLDY    42  29  59 NE17      29.76S
DICKINSON      FAIR      43  20  39 NE9       29.72S
GARRISON         N/A     44  25  47 E12       29.75S
HETTINGER ARPT CLEAR     46  23  40 NE8       29.73S
$$

NDZ004>008-012>016-024-026-027-054-270200-
NORTHEAST NORTH DAKOTA

CITY           SKY/WX    TMP DP  RH WIND       PRES   REMARKS
GRAND FORKS    LGT SNOW  32  30  92 N16       29.78R VSB 1
GRND FRKS AFB  LGT SNOW  31  29  95 NE16      29.78S FOG     WCI  20
DEVILS LAKE    CLOUDY    36  26  67 NE13      29.79S
$$

NDZ022-023-025-028>030-036>039-047>053-270200-
SOUTHEAST NORTH DAKOTA

CITY           SKY/WX    TMP DP  RH WIND       PRES   REMARKS
FARGO          LGT SNOW  29  27  92 N18       29.72S FOG     WCI  16
JAMESTOWN      CLOUDY    31  25  78 N13       29.76S
$$





USA.gov is the U.S. government's official web portal to all federal, state and local government web resources and services.